Weather History for Rickenbacker, OH

Change the Weather History Date:

Tuesday, April 9, 2013

  Actual Average Record
Temperature  
Mean Temperature 68 °F -  
Max Temperature 83 °F 63 °F 84 °F (2001)
Min Temperature 52 °F 42 °F 21 °F (1997)
Cooling Degree Days 2    
Growing Degree Days 18 (Base 50)    
Moisture  
Dew Point 50 °F    
Average Humidity 55    
Maximum Humidity 85    
Minimum Humidity 27    
Precipitation  
Precipitation 0.00 in - - ()
Sea Level Pressure  
Sea Level Pressure 30.00 in    
Wind  
Wind Speed 9 mph (SSW)    
Max Wind Speed 31 mph    
Max Gust Speed 38 mph    
Visibility 10 miles    
Events Rain    
Averages and records for this station are not official NWS values.
T = Trace of Precipitation, MM = Missing Value Source: NWS Daily Summary

Daily Weather History Graph

Daily Weather History Graph

Search for Another Location

Airport:

Trip Planner

Search our weather history database for the weather conditions in past years. The results will help you decide how hot, cold, wet, or windy it might be!

Date:

Astronomy

Apr. 09, 2013 Rise Set
Actual Time 7:02 AM EDT 8:04 PM EDT
Civil Twilight 6:35 AM EDT 8:31 PM EDT
Nautical Twilight 6:02 AM EDT 9:04 PM EDT
Astronomical Twilight 5:28 AM EDT 9:39 PM EDT
Moon 6:24 AM EDT (4/9) 7:38 PM EDT (4/9)
Length of Visible Light 13h 56m
Length of Day
13h 01m
Waning Crescent, 1% of the Moon is Illuminated
Apr 9
Waning Crescent
Apr 10
New
Apr 18
First Quarter
Apr 25
Full
May 2
Last Quarter

Hourly Weather History & Observations

Time (EDT) Temp. Dew Point Humidity Pressure Visibility Wind Dir Wind Speed Gust Speed Precip Events Conditions
12:15 AM 59.7 °F 50.2 °F 71% 29.98 in 10.0 mi SSW 8.1 mph - N/A   Clear
12:35 AM 59.0 °F 50.0 °F 72% 29.99 in 10.0 mi SSW 8.1 mph - N/A   Clear
12:55 AM 57.9 °F 49.6 °F 74% 30.00 in 10.0 mi Calm Calm - N/A   Clear
1:15 AM 57.0 °F 49.3 °F 75% 30.01 in 10.0 mi Calm Calm - N/A   Clear
1:35 AM 55.6 °F 48.4 °F 77% 30.01 in 10.0 mi SSE 4.6 mph - N/A   Clear
1:55 AM 54.5 °F 48.2 °F 79% 30.01 in 10.0 mi SE 5.8 mph - N/A   Clear
2:15 AM 53.8 °F 48.0 °F 81% 30.01 in 10.0 mi SE 4.6 mph - N/A   Clear
2:35 AM 53.8 °F 48.4 °F 82% 30.01 in 10.0 mi SSE 9.2 mph - N/A   Scattered Clouds
2:55 AM 54.3 °F 48.9 °F 82% 30.01 in 10.0 mi South 8.1 mph - N/A   Overcast
3:15 AM 56.3 °F 50.0 °F 79% 30.02 in 10.0 mi South 4.6 mph - N/A   Overcast
3:35 AM 57.7 °F 50.5 °F 77% 30.02 in 10.0 mi Calm Calm - N/A   Overcast
3:55 AM 57.9 °F 50.7 °F 77% 30.03 in 10.0 mi Calm Calm - N/A   Overcast
4:15 AM 58.8 °F 50.9 °F 75% 30.03 in 10.0 mi Calm Calm - N/A   Overcast
4:35 AM 58.5 °F 50.7 °F 75% 30.03 in 10.0 mi South 4.6 mph - N/A   Overcast
4:55 AM 57.4 °F 50.4 °F 77% 30.03 in 10.0 mi South 3.5 mph - N/A   Overcast
5:15 AM 55.6 °F 49.6 °F 80% 30.03 in 10.0 mi SSE 3.5 mph - N/A   Overcast
5:35 AM 55.6 °F 49.8 °F 81% 30.04 in 10.0 mi NNE 3.5 mph - N/A   Overcast
5:55 AM 56.8 °F 50.2 °F 78% 30.04 in 10.0 mi Calm Calm - N/A   Overcast
6:15 AM 56.3 °F 50.0 °F 79% 30.05 in 10.0 mi Calm Calm - N/A   Overcast
6:35 AM 55.4 °F 49.6 °F 81% 30.05 in 10.0 mi Calm Calm - N/A   Mostly Cloudy
6:55 AM 55.9 °F 49.6 °F 79% 30.06 in 10.0 mi Calm Calm - N/A   Overcast
7:15 AM 53.8 °F 48.4 °F 82% 30.06 in 10.0 mi SSE 8.1 mph - N/A   Scattered Clouds
7:35 AM 52.3 °F 47.8 °F 85% 30.06 in 10.0 mi SE 3.5 mph - N/A   Clear
7:55 AM 53.6 °F 48.6 °F 83% 30.07 in 10.0 mi SE 3.5 mph - N/A   Clear
8:15 AM 57.2 °F 50.7 °F 79% 30.07 in 10.0 mi SSE 5.8 mph - N/A   Clear
8:35 AM 59.9 °F 51.8 °F 75% 30.08 in 10.0 mi SSE 3.5 mph - N/A   Clear
8:55 AM 60.6 °F 51.8 °F 73% 30.08 in 10.0 mi Calm Calm - N/A   Scattered Clouds
9:15 AM 63.1 °F 52.3 °F 68% 30.08 in 10.0 mi Calm Calm - N/A   Scattered Clouds
9:35 AM 65.3 °F 52.2 °F 62% 30.08 in 10.0 mi SE 4.6 mph - N/A Rain Light Rain
9:55 AM 65.8 °F 52.0 °F 61% 30.07 in 10.0 mi SE 8.1 mph - N/A   Scattered Clouds
10:15 AM 68.0 °F 52.0 °F 56% 30.06 in 10.0 mi SE 10.4 mph - N/A   Scattered Clouds
10:35 AM 70.2 °F 51.6 °F 52% 30.06 in 10.0 mi South 8.1 mph - N/A   Scattered Clouds
10:55 AM 72.3 °F 51.6 °F 48% 30.05 in 10.0 mi South 11.5 mph - N/A   Clear
11:15 AM 73.9 °F 51.1 °F 45% 30.05 in 10.0 mi South 11.5 mph - N/A   Clear
11:35 AM 74.7 °F 51.3 °F 44% 30.05 in 10.0 mi SSW 15.0 mph - N/A   Scattered Clouds
11:55 AM 75.9 °F 51.4 °F 42% 30.04 in 10.0 mi SSW 15.0 mph 19.6 mph N/A   Clear
12:15 PM 76.5 °F 51.6 °F 42% 30.03 in 10.0 mi South 12.7 mph - N/A   Scattered Clouds
12:35 PM 78.3 °F 52.0 °F 40% 30.01 in 10.0 mi SSW 11.5 mph 21.9 mph N/A   Scattered Clouds
12:55 PM 79.7 °F 51.4 °F 37% 30.00 in 10.0 mi SSW 19.6 mph 25.3 mph N/A   Scattered Clouds
1:15 PM 80.8 °F 51.3 °F 36% 29.99 in 10.0 mi SSW 19.6 mph 25.3 mph N/A   Mostly Cloudy
1:35 PM 81.0 °F 51.1 °F 35% 29.98 in 10.0 mi SW 21.9 mph 27.6 mph N/A   Mostly Cloudy
1:55 PM 81.9 °F 51.8 °F 35% 29.98 in 10.0 mi SSW 19.6 mph 26.5 mph N/A   Scattered Clouds
2:15 PM 81.9 °F 51.8 °F 35% 29.97 in 10.0 mi SSW 20.7 mph 29.9 mph N/A   Mostly Cloudy
2:35 PM 82.0 °F 50.9 °F 34% 29.96 in 10.0 mi SW 28.8 mph 35.7 mph N/A   Scattered Clouds
2:55 PM 82.6 °F 50.0 °F 32% 29.95 in 10.0 mi SW 21.9 mph 31.1 mph N/A   Scattered Clouds
3:15 PM 83.3 °F 48.9 °F 30% 29.95 in 10.0 mi SSW 23.0 mph 33.4 mph N/A   Scattered Clouds
3:35 PM 83.3 °F 49.5 °F 31% 29.94 in 10.0 mi SSW 18.4 mph 32.2 mph N/A   Mostly Cloudy
3:55 PM 83.5 °F 48.9 °F 30% 29.93 in 10.0 mi SW 19.6 mph 27.6 mph N/A   Mostly Cloudy
4:15 PM 83.7 °F 46.9 °F 28% 29.93 in 10.0 mi SSW 31.1 mph 38.0 mph N/A   Scattered Clouds
4:35 PM 83.5 °F 46.0 °F 27% 29.93 in 10.0 mi SSW 26.5 mph 34.5 mph N/A   Scattered Clouds
4:55 PM 82.9 °F 46.4 °F 28% 29.92 in 10.0 mi SSW 26.5 mph 32.2 mph N/A   Scattered Clouds
5:15 PM 83.1 °F 46.6 °F 28% 29.92 in 10.0 mi SW 21.9 mph 29.9 mph N/A   Clear
5:35 PM 82.9 °F 46.4 °F 28% 29.93 in 10.0 mi SW 24.2 mph 31.1 mph N/A   Clear
5:55 PM 82.4 °F 46.6 °F 28% 29.93 in 10.0 mi SW 21.9 mph 31.1 mph N/A   Clear
6:15 PM 82.4 °F 46.6 °F 28% 29.94 in 10.0 mi SSW 25.3 mph 29.9 mph N/A   Clear
6:35 PM 81.7 °F 46.8 °F 29% 29.93 in 10.0 mi SW 18.4 mph 27.6 mph N/A   Clear
6:55 PM 80.8 °F 46.9 °F 30% 29.93 in 10.0 mi SSW 19.6 mph 25.3 mph N/A   Clear
7:15 PM 80.1 °F 47.1 °F 31% 29.94 in 10.0 mi SW 16.1 mph 28.8 mph N/A   Clear
7:35 PM 79.0 °F 48.0 °F 34% 29.93 in 10.0 mi SW 15.0 mph 24.2 mph N/A   Clear
7:55 PM 77.2 °F 48.7 °F 37% 29.93 in 10.0 mi SW 9.2 mph - N/A   Clear
8:15 PM 74.5 °F 49.8 °F 42% 29.93 in 10.0 mi SSW 9.2 mph - N/A   Clear
8:35 PM 72.3 °F 50.5 °F 46% 29.94 in 10.0 mi SSW 8.1 mph - N/A   Clear
8:55 PM 71.6 °F 51.3 °F 49% 29.94 in 10.0 mi SSW 9.2 mph - N/A   Clear
9:15 PM 71.1 °F 51.6 °F 50% 29.95 in 10.0 mi South 9.2 mph - N/A   Clear
9:35 PM 70.7 °F 51.6 °F 51% 29.95 in 10.0 mi SSW 10.4 mph - N/A   Clear
9:55 PM 70.0 °F 51.6 °F 52% 29.95 in 10.0 mi SSW 11.5 mph - N/A   Clear
10:15 PM 69.4 °F 51.8 °F 53% 29.95 in 10.0 mi South 8.1 mph - N/A   Clear
10:55 PM 68.5 °F 51.8 °F 55% 29.96 in 10.0 mi SSW 10.4 mph - N/A   Clear
11:15 PM 68.2 °F 51.8 °F 56% 29.95 in 10.0 mi SSW 11.5 mph - N/A   Clear
11:35 PM 68.0 °F 52.2 °F 57% 29.96 in 10.0 mi SSW 8.1 mph - N/A   Clear
11:55 PM 67.1 °F 52.5 °F 59% 29.96 in 10.0 mi SSW 9.2 mph - N/A   Clear